Location: ????????
(55.6189°N, 38.3031°E)
Time: 12:46:03
(UTC+00:00)

COSMOS 2455 - Pass Details

Date: 15 November 2019
Orbit: 902 x 908 km, 67.1° (Epoch: 07 December)

Event Time Altitude Azimuth Distance (km) Brightness Sun altitude
Exits shadow 02:48:19 26° 305° (NW) 1,707 3.8 -18.3°
Maximum altitude 02:51:37 57° 237° (WSW) 1,064 2.9 -17.8°
Drops below altitude 10° 02:57:28 10° 161° (SSE) 2,585 5.6 -17.0°
Sets 03:00:00 0° 157° (SSE) 3,522 6.4 -16.7°
